Flag for Canada Weather past 2 weeks in Steinbach, Manitoba, Canada

Now
33 °F

Chilly.


Feels Like: 28 °F
Forecast: N/A
Wind: 5 mph from Southwest

Location: Winnipeg The Forks

Current Time: Jan 27, 2015 at 5:02:24 PM

Latest Report: Jan 27, 2015 at 4:00 PM


Visibility: N/A

Pressure: 29.97 "Hg

Humidity: 78%

Dew point: 27 °F

Location of SteinbachLocation

Historic Weather in Steinbach — Graph

°F

Steinbach temperature yesterday

Maximum temperature yesterday: 36 °F (at 5:00 AM)
Minimum temperature yesterday: 24 °F (at 10:00 PM)
Average temperature yesterday: 29 °F

Past Weeks' High & Low Weather Summary

 TemperatureHumidityPressure
High40 °F (Jan 23, 3:00 PM)100% (Jan 20, 2:00 PM)30.78 "Hg (Jan 20, 2:00 PM)
Low-8 °F (Jan 12, 6:00 PM)61% (Jan 12, 4:00 PM)29.34 "Hg (Jan 17, 3:00 AM)
Average19 °F78%29.97 "Hg
* Reported Jan 12 4:00 PM — Jan 27 4:00 PM, Steinbach, Weather by CustomWeather, © 2014

Note: Actual official high and low records may vary slightly from our data, if they occured in-between our weather recording intervals... More about our weather records

Advertising

Steinbach weather history for previous 24 hours

 ConditionsComfort  
Time TempWeatherWind HumidityBarometerVisibility
4:00 PM
Jan 27
33 °FChilly.5 mph78%29.97 "HgN/A
3:00 PM30 °FChilly.5 mph86%29.97 "HgN/A
2:00 PM29 °FChilly.9 mph87%29.98 "HgN/A
1:00 PM29 °FChilly.6 mph87%29.98 "HgN/A
12:00 PM28 °FChilly.7 mph90%30.00 "HgN/A
11:00 AM27 °FChilly.3 mph94%30.03 "HgN/A
10:00 AM26 °FChilly.6 mph96%30.02 "HgN/A
9:00 AM25 °FChilly.5 mph94%30.03 "HgN/A
8:00 AM24 °FCold.6 mph94%30.03 "HgN/A
7:00 AM24 °FCold.3 mph94%30.02 "HgN/A
6:00 AM23 °FCold.3 mph94%30.02 "HgN/A
5:00 AM22 °FCold.3 mph94%30.03 "HgN/A
4:00 AM24 °FCold.3 mph87%30.03 "HgN/A
3:00 AM22 °FCold.6 mph100%30.04 "HgN/A
2:00 AM24 °FCold.7 mph91%30.04 "HgN/A
1:00 AM24 °FCold.5 mph90%30.04 "HgN/A
12:00 AM26 °FChilly.6 mph84%30.03 "HgN/A
11:00 PM
Jan 26
26 °FChilly.1 mph84%30.03 "HgN/A
10:00 PM24 °FCold.6 mph89%30.02 "HgN/A
9:00 PM25 °FChilly.3 mph83%30.01 "HgN/A
8:00 PM26 °FChilly.5 mph84%30.01 "HgN/A
7:00 PM28 °FChilly.5 mph76%29.99 "HgN/A
6:00 PM26 °FChilly.2 mph82%29.99 "HgN/A
5:00 PM26 °FChilly.1 mph81%29.97 "HgN/A
Weather by CustomWeather, © 2014

See weather overviewHow to use our weather pages